Regional Weather Roundup
Issued by NWS

Home | Current Version | Previous Version | Graphics & Text | Print | Product List | Glossary On
Versions: 1 2 3 4 5 6 7 8 9 10 11 12 13 14 15 16 17 18 19 20 21 22 23 24 25 26 27 28 29 30 31 32 33 34 35 36 37 38 39 40 41 42 43 44 45 46 47 48 49 50
000
ASUS43 KDMX 170307
RWRIA

WEATHER ROUNDUP FOR IOWA
NATIONAL WEATHER SERVICE DES MOINES IA
1000 PM CDT TUE SEP 16 2014

NOTE: "FAIR" INDICATES FEW OR NO CLOUDS BELOW 12,000 FEET WITH NO
SIGNIFICANT WEATHER AND/OR OBSTRUCTIONS TO VISIBILITY.

* - THESE STATIONS ARE NOT NWS STATIONS...THUS NOT UNDER NWS
QUALITY CONTROL.  THEY ALSO DO NOT REPORT WEATHER SUCH
AS PRECIPITATION OR FOG.

IAZ001>003-012>014-020>022-031>034-043>046-170400-
   NORTHWEST IOWA

CITY           SKY/WX    TMP DP  RH WIND       PRES   REMARKS
CARROLL *      CLEAR     50  48  93 S5        30.04S
CHEROKEE *     CLEAR     50  50 100 CALM      30.02S
DENISON *      CLEAR     54  50  87 SE7       30.02S
LE MARS *        N/A     59  50  72 SE8       30.00F
ORANGE CITY *  CLOUDY    61  48  63 S8        30.00S
SHELDON *      MOCLDY    54  50  87 S5        30.00S
SIOUX CITY     CLOUDY    58  52  80 SE6       30.01S
SPENCER        PTCLDY    52  47  83 S7        30.01F
STORM LAKE *   CLEAR     52  52 100 S8        30.03S
$$

IAZ055>058-069>071-079>083-090>094-170400-
   SOUTHWEST IOWA

CITY           SKY/WX    TMP DP  RH WIND       PRES   REMARKS
ATLANTIC *     CLEAR     57  52  82 S7        30.03F
AUDUBON *      CLEAR     52  45  76 CALM      30.05S
CLARINDA *     CLOUDY    57  54  88 CALM      30.07S
COUNCIL BLFS * CLOUDY    61  52  72 SE10      30.01F
CRESTON *      CLEAR     54  50  87 SE5       30.06F
HARLAN  *      CLEAR     54  50  87 SW5       30.07S
LAMONI         CLEAR     57  49  74 SE3       30.06S
SHENANDOAH *   CLOUDY    61  54  77 SE5       30.05S
$$

IAZ047>049-059>061-072>074-084-170400-
   CENTRAL IOWA

CITY           SKY/WX    TMP DP  RH WIND       PRES   REMARKS
AMES           CLEAR     50  48  93 CALM      30.06S
ANKENY *       CLEAR     50  50 100 CALM      30.06S
CHARITON *     PTCLDY    54  50  87 SE5       30.07S
DES MOINES     PTCLDY    59  49  69 S7        30.07R
GRINNELL*      CLEAR     50  46  87 CALM      30.08S
KNOXVILLE *    CLEAR     55  48  76 S7        30.06R
MARSHALLTOWN   CLEAR     50  45  83 CALM      30.06S
PELLA *        CLEAR     54  48  82 SE3       30.08S
PERRY *          N/A     50  48  93 S5        30.05S
$$

IAZ004>006-015-016-023>025-035-036-170400-
   NORTH CENTRAL IOWA

CITY           SKY/WX    TMP DP  RH WIND       PRES   REMARKS
ALGONA *       MOCLDY    55  48  76 S9        30.04R
CLARION *        N/A     52  46  82 S7        30.05S
ESTHERVILLE    PTCLDY    53  48  83 S6        30.02S
FORT DODGE *   CLEAR     54  46  76 SE3       30.05S
MASON CITY     CLEAR     46  44  93 S6        30.06S
FOREST CITY *  CLEAR     46  46 100 SE6       30.04S
IOWA FALLS *     N/A     52  46  82 S6        30.07R
$$

IAZ007>011-017>019-026>030-037>042-050>054-066-170400-
   NORTHEAST IOWA

CITY           SKY/WX    TMP DP  RH WIND       PRES   REMARKS
CEDAR RAPIDS   CLEAR     49  46  90 CALM      30.07S
CHARLES CITY * CLEAR     52  45  76 S6        30.07R
CLINTON *      CLEAR     50  43  76 S3        30.11S
DECORAH *      CLEAR     50  45  81 CALM      30.06S
DUBUQUE        CLEAR     48  45  89 CALM      30.09R
MONTICELLO *   CLEAR     46  45  93 CALM      30.08S
OELWEIN *      CLEAR     50  46  87 SE5       30.08S
WATERLOO       CLEAR     48  44  86 CALM      30.06S
$$

IAZ064-065-067-068-078-170400-
   EAST CENTRAL IOWA

CITY           SKY/WX    TMP DP  RH WIND       PRES   REMARKS
DAVENPORT      CLEAR     49  43  80 CALM      30.09S HAZE
IOWA CITY      CLEAR     52  48  86 CALM      30.09S
MT. PLEASANT * CLEAR     52  46  82 CALM      30.09R
MUSCATINE *    CLEAR     52  48  87 CALM      30.09S
QUAD CITIES    CLEAR     48  46  93 CALM      30.09S
$$

IAZ062-063-075>077-085>089-095>099-170400-
   SOUTHEAST IOWA

CITY           SKY/WX    TMP DP  RH WIND       PRES   REMARKS
BURLINGTON     CLEAR     50  49  96 CALM      30.08S
FAIRFIELD *    CLEAR     50  46  87 CALM      30.08S
FORT MADISON * CLEAR     52  48  87 CALM      30.09S
KEOKUK *       CLEAR     52  52 100 CALM      30.08S
OSKALOOSA *      N/A     54  48  82 SE7       30.07S
CENTERVILLE *  CLEAR     48  48 100 SE3       30.09R
OTTUMWA        CLEAR     51  48  89 SE5       30.07S
WASHINGTON *   CLEAR     48  46  93 SE5       30.08S
$$

ABBREVIATIONS USED IN REMARKS
   TC - TEMPERATURES IN CELSIUS
  WCI - WIND CHILL INDEX
   HX - HEAT INDEX
  VSB - VISIBILITY
$$




USA.gov is the U.S. government's official web portal to all federal, state and local government web resources and services.